Regional Weather Roundup
Issued by NWS

Home | Current Version | Previous Version | Text Only | Print | Product List | Glossary On
Versions: 1 2 3 4 5 6 7 8 9 10 11 12 13 14 15 16 17 18 19 20 21 22 23 24 25 26 27 28 29 30 31 32 33 34 35 36 37 38 39 40 41 42 43 44 45 46 47 48 49 50
000
ASUS43 KDMX 180706
RWRIA

WEATHER ROUNDUP FOR IOWA
NATIONAL WEATHER SERVICE DES MOINES IA
100 AM CST SAT NOV 18 2017

NOTE: "FAIR" INDICATES FEW OR NO CLOUDS BELOW 12,000 FEET WITH NO
SIGNIFICANT WEATHER AND/OR OBSTRUCTIONS TO VISIBILITY.

* - THESE STATIONS ARE NOT NWS STATIONS...THUS NOT UNDER NWS
QUALITY CONTROL.  THEY ALSO DO NOT REPORT WEATHER SUCH
AS PRECIPITATION OR FOG.

IAZ001>003-012>014-020>022-031>034-043>046-180800-
   NORTHWEST IOWA

CITY           SKY/WX    TMP DP  RH WIND       PRES   REMARKS
CARROLL *      MIX PCPN  41  39  93 N17       29.61F
CHEROKEE *     DRIZZLE   37  37 100 N12G18    29.67S WCI  30
DENISON *      CLOUDY    41  39  93 NE13      29.66R FOG
LE MARS *      CLOUDY    37  36  93 N10G16    29.70R WCI  30
ORANGE CITY *  CLOUDY    37  36  93 NE7G16    29.68S WCI  32
SHELDON *      CLOUDY    34  32  93 N14       29.66S WCI  24
SIOUX CITY     CLOUDY    39  38  96 N10       29.68S WCI  32
SPENCER        CLOUDY    36  33  89 N18       29.67F WCI  26
STORM LAKE *   LGT RAIN  37  37 100 N13       29.65S WCI  29
$$

IAZ055>058-069>071-079>083-090>094-180800-
   SOUTHWEST IOWA

CITY           SKY/WX    TMP DP  RH WIND       PRES   REMARKS
ATLANTIC *     CLOUDY    43  43 100 NE13G22   29.57S
AUDUBON *      MOCLDY    41  39  93 N16       29.63R
CLARINDA *     CLOUDY    52  52 100 NE20G30     N/A
COUNCIL BLFS * LGT RAIN  43  43 100 N21G32    29.57R
CRESTON *      CLOUDY    46  46 100 N18G28    29.54F FOG
HARLAN  *      MIX PCPN  43  43 100 N20G29    29.62F
LAMONI         CLOUDY    51  51 100 NE15      29.49F FOG
RED OAK *      CLOUDY    46  46 100 N22G30    29.58R
SHENANDOAH *   CLOUDY    50  48  93 N20G29    29.54S
$$

IAZ047>049-059>061-072>074-084-180800-
   CENTRAL IOWA

CITY           SKY/WX    TMP DP  RH WIND       PRES   REMARKS
AMES           CLOUDY    43  43 100 N15       29.61R
ANKENY *       CLOUDY    45  43  93 N16       29.59F
BOONE *        CLOUDY    41  41 100 N18G24    29.60F FOG
CHARITON *     FOG       46  46 100 N15       29.51F VSB 1/4
DES MOINES     CLOUDY    45  43  93 N20       29.56S
GRINNELL*      CLOUDY    42  41  97 N15G22    29.56R FOG
KNOXVILLE *    CLOUDY    46  46 100 N13G18    29.54R FOG
MARSHALLTOWN   CLOUDY    41  41 100 N14       29.58R FOG
NEWTON *       CLOUDY    43  43 100 N21G28    29.55S FOG
PELLA *        CLOUDY    45  44  97 N12G17    29.56R FOG
PERRY *        CLOUDY    43  42  96 N18       29.60F FOG
$$

IAZ004>006-015-016-023>025-035-036-180800-
   NORTH CENTRAL IOWA

CITY           SKY/WX    TMP DP  RH WIND       PRES   REMARKS
ALGONA *       LGT RAIN  37  37 100 N10G17    29.65F WCI  30
CLARION *      CLOUDY    37  37 100 N10G16    29.65R FOG     WCI  30
ESTHERVILLE    CLOUDY    35  35 100 N13       29.68R WCI  26
FORT DODGE *   LGT RAIN  38  37  97 N10       29.63F WCI  31
MASON CITY     LGT RAIN  37  35  92 N16       29.66R WCI  28
FOREST CITY *  RAIN      37  37 100 N10       29.65R WCI  30
WEBSTER CITY * LGT RAIN  39  39 100 N17G23    29.61F WCI  30
IOWA FALLS *   LGT RAIN  41  40  98 NW15      29.63R
$$

IAZ007>011-017>019-026>030-037>042-050>054-066-180800-
   NORTHEAST IOWA

CITY           SKY/WX    TMP DP  RH WIND       PRES   REMARKS
CEDAR RAPIDS   CLOUDY    43  43 100 N7        29.53F FOG
CHARLES CITY * CLOUDY    37  37 100 N12       29.60F WCI  30
CLINTON *      CLOUDY    43  42  97 E6        29.54F FOG
DECORAH *      CLOUDY    37  37 100 N8        29.60R FOG     WCI  31
DUBUQUE        FOG       39  39 100 NE14      29.53F VSB 1/4 WCI  31
MONTICELLO *   CLOUDY    41  41 100 N5        29.54F FOG
OELWEIN *      CLOUDY    39  39 100 NE13      29.56F FOG     WCI  32
WATERLOO       CLOUDY    39  38  96 N8        29.58R WCI  33
$$

IAZ064-065-067-068-078-180800-
   EAST CENTRAL IOWA

CITY           SKY/WX    TMP DP  RH WIND       PRES   REMARKS
DAVENPORT      FOG       44  43  96 N9        29.55F VSB 1
IOWA CITY      CLOUDY    46  43  89 NE6       29.54F FOG
MT. PLEASANT * CLOUDY    47  47  97 N12       29.50S FOG
MUSCATINE *    CLOUDY    46  45  93 NE9       29.53F FOG
QUAD CITIES    CLOUDY    46  43  89 NE7       29.52F FOG
$$

IAZ062-063-075>077-085>089-095>099-180800-
   SOUTHEAST IOWA

CITY           SKY/WX    TMP DP  RH WIND       PRES   REMARKS
BURLINGTON     LGT RAIN  52  51  97 SE5       29.47F FOG
FAIRFIELD *    CLOUDY    48  45  87 NE9       29.50S FOG
FORT MADISON * LGT RAIN  52  52 100 SE7       29.48F
KEOKUK *       CLOUDY    50  50 100 NE3       29.47F FOG
OSKALOOSA *    CLOUDY    45  44  97 N9        29.53R FOG
OTTUMWA        CLOUDY    48  46  93 N9        29.52S FOG
WASHINGTON *   CLOUDY    46  46 100 NE10      29.53S FOG
$$

ABBREVIATIONS USED IN REMARKS
   TC - TEMPERATURES IN CELSIUS
  WCI - WIND CHILL INDEX
   HX - HEAT INDEX
  VSB - VISIBILITY
$$





USA.gov is the U.S. government's official web portal to all federal, state and local government web resources and services.